Location: *
(37.5724°S, 58.0067°E)
Time: 10:33:48
(UTC+00:00)

Cosmos 1544 Rocket - Pass Details

Date: 26 September 2020
Orbit: 605 x 630 km, 82.5° (Epoch: 29 October)

Event Time Altitude Azimuth Distance (km) Brightness Sun altitude
Rises 15:50:58 0° 190° (S) 2,951 7.4 -20.8°
Reaches altitude 10° 15:53:14 10° 192° (SSW) 2,032 6.6 -21.2°
Maximum altitude 15:57:43 70° 274° (W) 675 3.8 -22.0°
Enters shadow 16:00:12 25° 353° (N) 1,253 5.0 -22.5°
